Tracking 20083 objects as of 8-Dec-2019
HD Live streaming from Space Station
objects crossing your sky now

FENGYUN 1C DEB

Track FENGYUN 1C DEB now!
10-day predictions


NORAD ID: 30434
Int'l Code: 1999-025AEV
Perigee: 849.6 km
Apogee: 1,031.9 km
Inclination: 99.1 °
Period: 103.7 minutes
Semi major axis: 7311 km
RCS: 0.018 m2 (small)
Launch date: May 10, 1999
Source: People's Republic of China (PRC)
Launch site: Taiyaun Space Center, China (TSC)

Note: This is SATELLITE DEBRIS
aabbcc
Your satellite tracking list
Your tracking list is empty




NASA's NSSDC Master Catalog

Two Line Element Set (TLE):
1 30434U 99025AEV 19342.08033559  .00000059  00000-0  79013-4 0  9999
2 30434  99.0510  14.0349 0124691  77.3451 337.4791 13.88585847652285
Source of the keplerian elements: AFSPC